Regional Weather Roundup
Issued by NWS

Home | Current Version | Previous Version | Text Only | Print | Product List | Glossary Off
Versions: 1 2 3 4 5 6 7 8 9 10 11 12 13 14 15 16 17 18 19 20 21 22 23 24 25 26 27 28 29 30 31 32 33 34 35 36 37 38 39 40 41 42 43 44 45 46 47 48 49 50

000
ASUS43 KMKX 292300
RWRWI

WISCONSIN REGIONAL WEATHER ROUNDUP
NATIONAL WEATHER SERVICE MILWAUKEE/SULLIVAN WI
600 PM CDT MON MAY 29 2017

NOTE: "FAIR" INDICATES FEW OR NO CLOUDS BELOW 12,000 FEET WITH NO
SIGNIFICANT WEATHER AND/OR OBSTRUCTIONS TO VISIBILITY.

WIZ001-002-006>008-014>016-023>028-300000-
NORTHWEST WISCONSIN

CITY           SKY/WX    TMP DP  RH WIND       PRES   REMARKS
SUPERIOR ARPT  NOT AVBL
ASHLAND        CLOUDY    57  47  69 W15G24    29.73R
HAYWARD        PTSUNNY   62  48  60 VRB7      29.74S
SIREN          CLOUDY    61  47  59 NW15      29.78R
CUMBERLAND     PTSUNNY   55  50  82 W7        29.79R
RICE LAKE      PTSUNNY   57  51  81 W8        29.80R
CHETEK         LGT RAIN  57  52  84 W7G24     29.79R
LADYSMITH      LGT RAIN  58  51  76 W14G21    29.78R
EAU CLAIRE     CLOUDY    56  52  86 S7        29.78F THUNDER
MENOMONIE      MOSUNNY   65  47  50 W13G18    29.78F
NEW RICHMOND   CLOUDY    60  46  60 W17       29.81R
OSCEOLA        CLOUDY    60  47  62 W17G28    29.84R
$$

WIZ003>005-009-010-017-018-300000-
NORTH CENTRAL WISCONSIN

CITY           SKY/WX    TMP DP  RH WIND       PRES   REMARKS
MANITOWISH WTR CLOUDY    55  52  90 W9G18     29.71S
ARBOR VITAE    LGT RAIN  57  53  88 NW10      29.72R
WOODRUFF       LGT RAIN  57  53  88 NW10      29.72R
RHINELANDER    CLOUDY    55  51  86 W7        29.73S
EAGLE RIVER    RAIN      52  50  93 W8G18     29.72R
LAND O LAKES   MOSUNNY   58  50  77 W6        29.71S
PHILLIPS       MOSUNNY   58  53  83 W5        29.73S
TOMAHAWK       LGT RAIN  57  49  75 W8G18     29.74R
MEDFORD        NOT AVBL
MERRILL        CLOUDY    61  52  72 W12G18    29.75R
$$

WIZ029-030-035-036-043>047-300000-
CENTRAL WISCONSIN

CITY           SKY/WX    TMP DP  RH WIND       PRES   REMARKS
WAUSAU         CLOUDY    60  50  69 W10       29.74F
MOSINEE        NOT AVBL
MARSHFIELD     CLOUDY    59  50  72 W12       29.77R
STEVENS POINT  MOSUNNY   60  48  64 W12G18    29.78S
WAUPACA        CLOUDY    64  49  59 W12       29.78S
WAUTOMA        SUNNY     60  52  74 W13       29.80F
WISC RAPIDS    MOSUNNY   61  49  64 W10       29.80S
CAMP DOUGLAS   LGT RAIN  55  52  88 W9        29.83R FOG
$$

WIZ011>013-019>022-031-037>040-048>050-300000-
NORTHEAST WISCONSIN

CITY           SKY/WX    TMP DP  RH WIND       PRES   REMARKS
ANTIGO         CLOUDY    54  47  78 W12       29.75R
SHAWANO        CLOUDY    62  54  74 SW8       29.74R
OCONTO         PTSUNNY   63  49  61 W9G16     29.72F
STURGEON BAY   PTSUNNY   63  48  58 W13G21    29.73F
GREEN BAY      CLOUDY    61  47  59 W14G24    29.75R
MANITOWOC      NOT AVBL
APPLETON       PTSUNNY   61  45  55 W14G23    29.76R
CLINTONVILLE   CLOUDY    61  46  59 SW10G16   29.76S
OSHKOSH        CLOUDY    61  47  59 W14G22    29.78R
$$

WIZ032>034-041-042-053>061-300000-
SOUTHWEST WISCONSIN

CITY           SKY/WX    TMP DP  RH WIND       PRES   REMARKS
LA CROSSE      MOSUNNY   66  52  60 W13       29.81F
SPARTA         TSTM      56  52  89 NW7       29.85R
VIROQUA        MOSUNNY   60  50  69 MISG      29.84S
BOSCOBEL       CLOUDY    66  49  54 W8        29.84R
PRAIRIE DU CHI PTSUNNY   69  43  37 W16       29.84S
PLATTEVILLE    NOT AVBL
$$

WIZ056-057-062-063-064-067-068-300000-
SOUTH CENTRAL WISCONSIN

CITY           SKY/WX    TMP DP  RH WIND       PRES   REMARKS
REEDSBURG      SUNNY     62  49  62 W12       29.82S
BARABOO/DELLS  MOSUNNY   63  49  61 NW7       29.82S
LONE ROCK      NOT AVBL
MINERAL POINT  MOSUNNY   68  45  42 W17G25    29.83F
MADISON        PTSUNNY   67  45  45 W10G16    29.81S
MIDDLETON      MOSUNNY   68  47  46 W14       29.83S
WATERTOWN      NOT AVBL
MONROE         MOSUNNY   68  41  37 W18G25    29.84S
JANESVILLE     PTSUNNY   72  43  35 W23G29    29.82S
$$

WIZ051-052-058>065-066-070>072-300000-
SOUTHEAST WISCONSIN

CITY           SKY/WX    TMP DP  RH WIND       PRES   REMARKS
MILWAUKEE      PTSUNNY   70  44  39 W14G22    29.81R
WAUKESHA       MOSUNNY   66  43  42 W17G28    29.82S
MILWAUKEE/TIMM PTSUNNY   70  41  35 W22       29.81S
RACINE         PTSUNNY   71  43  36 W10G21    29.83R
KENOSHA        MOSUNNY   69  45  41 W20G29    29.82S
FOND DU LAC    LGT RAIN  60  47  61 NW18G35   29.79R
SHEBOYGAN      PTSUNNY   66  46  48 W21G30    29.77S
WEST BEND      SUNNY     68  41  37 W16G26    29.79S
JUNEAU         NOT AVBL
$$

LSZ147-162-300000-
LAKE SUPERIOR

STATION/POSITION TIME  TEMP    WIND        PRES    WAVE
                       AIR SEA DIR/SP/G            HT/PER
                 (UTC) (F)     (DEG/KT/KT) (MB)    (FT/S)
W MID LAKE BUOY  2150   43 38  260/ 16/ 17 1003.9R   3/ 4
DEVILS ISLAND    2200   49     260/ 18/ 20 1005.5R
PORT WING        2040   54     260/ 15/ 20 1006.4S
SAXON HARBOR     2240   55     310/ 12/ 16 1006.1R
$$

LMZ867-665-643>646-300000-
LAKE MICHIGAN

STATION/POSITION TIME  TEMP    WIND        PRES    WAVE
                       AIR SEA DIR/SP/G            HT/PER
                 (UTC) (F)     (DEG/KT/KT) (MB)    (FT/S)
CHAMBERS ISLAND  2240   60     200/  6/ 11 1005.8R
N MID LAKE BUOY  2150   47 41  190/ 16/ 17 1006.0F   2/ 4
NORTHPORT PIER   2240   62     220/  4/ 12 1005.8S
KEWAUNEE LAKESHO 2230   64     270/ 13/ 16 1007.1R
SHEBOYGAN LAKESH 2200   67     250/ 14/ 20 1007.4F
PORT WASHINGTON  2240   71     250/ 10/ 23 1009.5S
ATWATER BUOY     2109   65     260/ 17/ 19 1009.1S
MILWAUKEE LAKESH 2230   68     280/ 13/ 17   N/A
S MID LAKE BUOY  2150   55 48  270/  4/  6 1010.2R   2/ 4
KENOSHA   LAKESH 2200   71     260/ 17/ 27 1009.5
$$

TC  - TEMPERATURE IN CELSIUS
VSB - VISIBILITY IN STATUTE MILES
WCI - WIND CHILL INDEX
HX  - HEAT INDEX





USA.gov is the U.S. government's official web portal to all federal, state and local government web resources and services.